Regional Weather Roundup
Issued by NWS New Orleans/Baton Rouge, LA

Home | Current Version | Previous Version | Text Only | Print | Product List | Glossary Off
Versions: 1 2 3 4 5 6 7 8 9 10 11 12 13 14 15 16 17 18 19 20 21 22 23 24 25 26 27 28 29 30 31 32 33 34 35 36 37 38 39 40 41 42 43 44 45 46 47 48 49 50

223
ASUS44 KLIX 011210
RWRLIX
NEW ORLEANS REGIONAL WEATHER ROUNDUP
NATIONAL WEATHER SERVICE NEW ORLEANS LA
700 AM CDT WED OCT 01 2014

NOTE: "FAIR" INDICATES FEW OR NO CLOUDS BELOW 12,000 FEET WITH NO
      SIGNIFICANT WEATHER AND/OR OBSTRUCTIONS TO VISIBILITY.
      SKY/WX - SKY CONDITION AND SIGNIFICANT WEATHER.
      TMP - AIR TEMPERATURE.     DP    - DEWPOINT TEMPERATURE.
      RH  - RELATIVE HUMIDITY.   PRES  - PRESSURE.
      HI  - HEAT INDEX.          WCI   - WIND CHILL INDEX.

*  THESE STATIONS ARE NOT NWS OR FAA STATIONS AND ARE NOT UNDER
   NWS QUALITY CONTROL.

LAZ038-040-048-061>063-065>067-069-011300-
SOUTHEAST LOUISIANA

CITY           SKY/WX    TMP DP  RH WIND       PRES   REMARKS
N.O. AUDUBON     N/A     76  73  92 MISG        N/A
6HR MIN TEMP:  75; 6HR MAX TEMP:  76;

N.O. INTL ARPT PTCLDY    76  71  85 E5        29.89R
6HR MIN TEMP:  75; 6HR MAX TEMP:  77;

N.O. LAKEFRONT CLEAR     76  71  85 E7        29.90R
6HR MIN TEMP:  75; 6HR MAX TEMP:  77;

N.O. DOWNTOWN*   N/A     77  70  78 SE6       29.90S
6HR MIN TEMP:  77; 6HR MAX TEMP:  77;

SLIDELL        CLEAR     68  65  90 CALM      29.90S
6HR MIN TEMP:  67; 6HR MAX TEMP:  71;

BATON ROUGE    PTCLDY    72  71  97 E6        29.89R FOG
6HR MIN TEMP:  71; 6HR MAX TEMP:  74;

BOOTHVILLE     CLEAR     77  74  90 E3        29.90R
6HR MIN TEMP:  76; 6HR MAX TEMP:  77;

BELLE CHASSE   PTCLDY    73  69  87 E3        29.89S
6HR MIN TEMP:  70; 6HR MAX TEMP:  77;

BOGALUSA*      FOG       67  65  91 CALM      29.94R VSB 1/2
6HR MIN TEMP:  67; 6HR MAX TEMP:  71;

GALLIANO*      NOT AVBL
NEW ROADS*     CLOUDY    73  72  98 E3        29.89R FOG
6HR MIN TEMP:  72; 6HR MAX TEMP:  75;

GONZALES*        N/A     72  72 100 CALM      29.88S
6HR MIN TEMP:  71; 6HR MAX TEMP:  75;

HAMMOND*       CLEAR     72  68  88 E3        29.92R
HOUMA*         PTCLDY   N/A N/A N/A NE7       29.88R FOG
PORT FOURCHON* PTSUNNY   81  75  83 E9        29.91S

$$

MSZ070-080>082-011300-
SOUTHERN MISSISSIPPI

CITY           SKY/WX    TMP DP  RH WIND       PRES   REMARKS
MCCOMB         FOG       71  70  96 CALM      29.93R VSB 1/2
6HR MIN TEMP:  71; 6HR MAX TEMP:  72;

GULFPORT       PTCLDY    71  69  93 NE3       29.92R
6HR MIN TEMP:  70; 6HR MAX TEMP:  73;

BILOXI         CLEAR     71  71 100 E8        29.92R
6HR MIN TEMP:  70; 6HR MAX TEMP:  74;

PASCAGOULA     CLEAR     65  64  97 CALM      29.93R
6HR MIN TEMP:  63; 6HR MAX TEMP:  67;

STENNIS ARPT*  CLEAR     70  66  88 CALM      29.92  FOG

$$

COASTAL OBSERVATIONS
LAKE AND NEARSHORE STATIONS

STATION/POSITION TIME  TEMP    WIND        PRES    WAVE
                       AIR SEA DIR/SP/G            HT/PER
                 (UTC) (F)     (DEG/KT/KT) (MB)    (FT/S)
PASCAGOULA       1200   72      30/  4/  7 1012.8
WAVELAND YACHT   1200   73      60/  8/  8 1012.3
GRAND ISLE       1200   79 82  110/  5/ 10 1012.6
SOUTHWEST PASS   1200   80 85  110/ 12/ 14 1012.5
NEW CANAL        1200   75 77   CALM  /  1 1012.6
SHELL BEACH      1200   78 76  110/  7/  9 1012.4

OFFSHORE STATIONS

STATION/POSITION TIME  TEMP    WIND        PRES    WAVE
                       AIR SEA DIR/SP/G            HT/PER
                 (UTC) (F)     (DEG/KT/KT) (MB)    (FT/S)
64 S DAUPHIN ISL 1056   79 82  130/  6/  8 1013.0    1/ 4

$$




USA.gov is the U.S. government's official web portal to all federal, state and local government web resources and services.